ECHOSTAR 1

导读 | 星芒AI

ECHOSTAR 1 是一颗由 Hughes Space and Communications 公司制造的通信卫星,于1993年12月18日发射,由 EchoStar Communications 公司运营。该卫星主要用于美国境内的直接到户(DTH)卫星电视服务,支持多个电视频道的传输。它位于西经119度的轨道位置,搭载C波段和Ku波段转发器,为EchoStar的DirecTV服务提供关键支持。ECHOSTAR 1 在卫星电视行业的发展中起到了重要作用,代表了当时通信卫星技术的先进水平。

基本信息
目录编号:
23754
目录名称:
ECHOSTAR 1
国际标识:
1995-073A
轨道中心:
EARTH
卫星名称:
ECHOSTAR 1
卫星全名:
--
卫星状态:
在轨 (已飞行10943 天)
发射日期:
1995-12-28 UTC
国别 :
美国 (US)
星等 :
--
轨道信息
数据来源 国际轨道数据 AOE轨道数据
星历时间 2025-12-13T07:41:36+0800
10小时前
查看轨道信息
2025-12-13T10:00:00+0800
7小时前
查看轨道信息
半长轴 42543.58km 42543.437km
偏心率 0.0006039 0.0006016
轨道倾角 8.162° 8.162°
近地点辐角 204.041° 204.002°
升交点赤经 64.971° 64.968°
平近点角 155.987° 190.264°
近地点 36139.752km 36139.707km
远地点 36191.138km 36190.897km
周期 1455.495分钟 1455.488分钟
每日圈数 0.989354 0.989359
详细信息
使用方式:
暂无
2D轨道图
3D轨道图
轨道高度分析图
轨道倾角分析图
轨道综合分析图
查看轨道综合分析图